Change the Weather History Date:

Wednesday, December 26, 2012

  Actual Average Record
Temperature  
Mean Temperature 30 °F -  
Max Temperature 33 °F 38 °F 65 °F (1971)
Min Temperature 28 °F 21 °F 0 °F (1948)
Degree Days  
Heating Degree Days 34    
Moisture  
Dew Point 25 °F    
Average Humidity 77    
Maximum Humidity 86    
Minimum Humidity 71    
Precipitation  
Precipitation 0.00 in - - ()
Sea Level Pressure  
Sea Level Pressure 30.00 in    
Wind  
Wind Speed 18 mph (NNW)    
Max Wind Speed 26 mph    
Max Gust Speed 32 mph    
Visibility 9 miles    
Events Snow    
Averages and records for this station are not official NWS values.
T = Trace of Precipitation, MM = Missing Value Source: NWS Daily Summary

Daily Weather History Graph

Daily Weather History Graph

Search for Another Location

Airport or City:

Trip Planner

Search our weather history database for the weather conditions in past years. The results will help you decide how hot, cold, wet, or windy it might be!

Date:

Astronomy

Dec. 26, 2012 Rise Set
Actual Time 7:15 AM CST 4:44 PM CST
Civil Twilight 6:45 AM CST 5:14 PM CST
Nautical Twilight 6:12 AM CST 5:47 PM CST
Astronomical Twilight 5:40 AM CST 6:20 PM CST
Moon 3:38 PM CST (12/26) 5:39 AM CST (12/26)
Length of Visible Light 10h 28m
Length of Day
9h 29m
Waxing Gibbous, 97% of the Moon is Illuminated
Dec 26
Waxing Gibbous
Dec 28
Full
Jan 4
Last Quarter
Jan 11
New
Jan 18
First Quarter

Hourly Weather History & Observations

Time (CST) Temp. Windchill Dew Point Humidity Pressure Visibility Wind Dir Wind Speed Gust Speed Precip Events Conditions
12:55 AM 32.9 °F 21.6 °F 26.2 °F 76% 29.94 in 10.0 mi North 18.4 mph 25.3 mph N/A   Overcast
1:55 AM 33.1 °F 19.8 °F 26.4 °F 77% 29.92 in 10.0 mi North 26.5 mph 32.2 mph N/A   Overcast
2:54 AM 32.0 °F 19.5 °F 26.6 °F 80% 29.90 in 10.0 mi North 21.9 mph 29.9 mph N/A   Overcast
2:55 AM 32.4 °F 20.3 °F 26.2 °F 78% 29.91 in 10.0 mi North 20.7 mph 27.6 mph 0.00 in   Overcast
3:30 AM 32.0 °F 21.2 °F 26.6 °F 80% 29.90 in 10.0 mi North 16.1 mph 28.8 mph N/A   Overcast
3:31 AM 32.0 °F 20.8 °F 26.6 °F 80% 29.90 in 10.0 mi North 17.3 mph 29.9 mph N/A   Overcast
3:43 AM 32.0 °F 20.1 °F 26.6 °F 80% 29.89 in 7.0 mi North 19.6 mph 28.8 mph N/A   Overcast
3:55 AM 31.3 °F 19.9 °F 27.1 °F 85% 29.89 in 5.0 mi North 17.3 mph 28.8 mph 0.00 in   Overcast
4:06 AM 30.2 °F 18.1 °F 26.6 °F 86% 29.89 in 5.0 mi North 18.4 mph 26.5 mph N/A   Overcast
4:17 AM 32.0 °F 20.5 °F 26.6 °F 80% 29.86 in 5.0 mi North 18.4 mph 27.6 mph N/A Snow Light Snow
4:18 AM 30.2 °F 18.9 °F 24.8 °F 80% 29.88 in 5.0 mi North 16.1 mph 27.6 mph N/A Snow Light Snow
4:28 AM 32.0 °F 20.5 °F 26.6 °F 80% 29.88 in 10.0 mi North 18.4 mph 26.5 mph N/A   Overcast
4:55 AM 31.3 °F 18.9 °F 25.5 °F 79% 29.88 in 10.0 mi North 20.7 mph 28.8 mph 0.00 in   Overcast
5:55 AM 31.3 °F 18.5 °F 24.8 °F 77% 29.90 in 10.0 mi North 21.9 mph - N/A   Overcast
6:35 AM 32.0 °F 19.8 °F 24.8 °F 75% 29.90 in 10.0 mi North 20.7 mph 29.9 mph N/A   Overcast
6:55 AM 31.5 °F 19.1 °F 24.8 °F 76% 29.90 in 8.0 mi North 20.7 mph 31.1 mph 0.00 in   Overcast
7:10 AM 32.0 °F 22.1 °F 24.8 °F 75% 29.90 in 10.0 mi North 13.8 mph 28.8 mph N/A   Overcast
7:55 AM 31.1 °F 18.9 °F 24.6 °F 77% 29.91 in 10.0 mi North 19.6 mph 27.6 mph 0.00 in   Overcast
8:55 AM 31.5 °F 19.1 °F 25.0 °F 77% 29.93 in 10.0 mi NNW 20.7 mph 26.5 mph N/A   Overcast
9:55 AM 31.5 °F 18.8 °F 24.6 °F 76% 29.97 in 10.0 mi NNW 21.9 mph 27.6 mph N/A   Overcast
10:55 AM 32.0 °F 20.8 °F 24.6 °F 74% 29.99 in 10.0 mi NW 17.3 mph 29.9 mph N/A   Overcast
11:55 AM 32.2 °F 22.3 °F 24.8 °F 74% 29.99 in 10.0 mi NW 13.8 mph - N/A   Overcast
12:55 PM 32.5 °F 21.9 °F 24.8 °F 73% 30.00 in 10.0 mi NW 16.1 mph - N/A   Overcast
1:55 PM 33.1 °F 22.2 °F 24.8 °F 72% 30.01 in 10.0 mi NNW 17.3 mph - N/A   Overcast
2:55 PM 32.7 °F 21.1 °F 24.4 °F 72% 30.05 in 10.0 mi NW 19.6 mph - N/A   Overcast
3:55 PM 32.2 °F 21.8 °F 23.9 °F 72% 30.08 in 10.0 mi NW 15.0 mph 24.2 mph N/A   Overcast
4:55 PM 31.8 °F 22.3 °F 23.5 °F 71% 30.10 in 10.0 mi NW 12.7 mph - N/A   Overcast
5:55 PM 30.9 °F 20.2 °F 23.5 °F 74% 30.12 in 10.0 mi NW 15.0 mph - N/A   Overcast
6:36 PM 30.2 °F 18.5 °F 23.0 °F 75% 30.13 in 10.0 mi NW 17.3 mph 21.9 mph N/A   Overcast
6:55 PM 30.6 °F 19.8 °F 23.0 °F 74% 30.13 in 10.0 mi WNW 15.0 mph - N/A   Overcast
7:55 PM 30.2 °F 21.3 °F 23.2 °F 75% 30.15 in 10.0 mi NW 10.4 mph - N/A   Overcast
8:55 PM 29.8 °F 20.9 °F 22.8 °F 75% 30.16 in 10.0 mi NW 10.4 mph - N/A   Overcast
9:25 PM 30.2 °F 20.8 °F 23.0 °F 75% 30.16 in 10.0 mi NW 11.5 mph - N/A   Overcast
9:55 PM 29.5 °F 19.3 °F 22.8 °F 76% 30.17 in 10.0 mi NW 12.7 mph - N/A   Overcast
10:55 PM 29.1 °F 18.9 °F 22.6 °F 77% 30.18 in 10.0 mi WNW 12.7 mph - N/A   Overcast
11:33 PM 28.4 °F 19.7 °F 23.0 °F 80% 30.18 in 10.0 mi WNW 9.2 mph - N/A   Overcast
11:55 PM 28.6 °F 19.9 °F 22.5 °F 78% 30.18 in 10.0 mi WNW 9.2 mph - N/A   Overcast